Temp
65 56 52 58 62 62 62 60 59 64 72 70 70 70 74 79 79 79 79 80 81 82 84 83 80 77 76 69 65 61 62 61 60 58 57 56 56 56 57 57 59 59 59 61
60 53 62 65 65 63 61 58 57 62 68 68 68 67 73 76 77 79 80 80 80 82 83 80 77 74 73 68 63 61 62 62 60 60 59 59 58 58 57 57 58 59 59 60
56 61 67 64 62 59 60 56 57 54 62 68 66 63 67 74 77 80 81 83 84 82 81 78 75 72 71 66 62 61 63 63 61 60 59 58 58 57 56 57 57 59 59 60
60 67 65 63 60 61 54 63 59 55 52 46 65 50 64 70 73 77 79 79 81 83 83 79 76 71 69 68 64 63 63 63 61 61 59 58 57 55 57 58 61 64 63 63
56 60 60 58 60 64 58 64 58 54 50 53 56 53 59 69 68 73 78 80 81 81 82 79 77 73 71 70 65 63 63 63 62 61 60 58 57 59 58 59 60 62 63 64
59 68 64 64 65 66 66 60 58 56 51 40 52 54 56 62 68 74 80 81 80 81 82 81 79 75 72 71 67 63 62 62 62 61 61 59 58 58 57 58 59 61 63 63
54 56 63 66 57 62 61 54 42 36 36 37 56 54 58 68 74 77 78 80 81 81 81 80 76 75 73 69 66 64 63 61 62 61 60 60 59 59 59 59 61 61 62 61
47 43 57 64 58 55 55 52 43 32 34 38 53 48 59 74 77 80 81 81 82 81 80 80 78 75 74 70 67 65 64 62 62 61 61 61 61 59 60 61 62 62 62 63
49 50 65 64 64 62 55 48 57 47 48 40 47 55 66 74 75 77 78 80 78 80 81 81 79 76 74 71 68 64 64 63 62 61 62 61 61 61 62 62 63 62 62 63
54 45 60 63 64 63 58 61 46 48 35 34 45 51 54 64 70 74 75 76 78 81 81 80 81 76 75 73 69 65 65 63 63 62 62 63 62 62 63 63 62 62 63 63
56 52 51 60 54 52 53 50 51 52 50 40 38 46 62 60 66 72 74 76 76 78 79 80 80 77 76 74 70 66 65 65 63 63 63 63 63 62 63 63 63 63 63 63
52 49 42 50 62 65 61 53 53 42 44 50 46 45 68 68 72 74 74 76 77 79 79 81 81 77 76 73 71 68 66 66 65 64 63 63 63 64 63 63 63 64 63 64
50 47 38 45 54 59 55 58 58 56 54 46 40 47 69 70 70 73 72 77 77 78 79 81 80 79 76 73 73 70 68 68 68 65 64 63 63 64 63 64 64 65 65 64
52 46 42 36 39 48 45 52 58 56 46 48 49 53 61 65 64 65 67 76 77 78 77 79 79 79 77 75 74 72 69 69 69 67 65 63 63 64 65 65 66 66 66 66
51 41 45 48 51 52 50 51 53 52 54 47 51 54 61 65 68 70 73 74 76 77 78 78 77 77 78 76 74 74 71 70 70 70 67 65 65 65 65 66 66 66 66 67
52 40 46 43 50 50 48 51 53 53 54 55 56 55 66 69 71 71 73 75 75 76 78 79 79 79 78 78 76 75 73 70 71 70 69 69 68 67 66 66 66 66 65 66
45 42 39 34 46 46 39 48 52 53 57 56 48 55 62 63 67 69 72 73 74 75 76 76 75 77 78 77 76 75 74 73 71 70 71 70 70 68 67 68 67 66 64 64
43 42 40 34 38 28 48 59 57 55 56 58 57 59 62 59 67 72 73 72 74 73 72 73 72 72 73 75 77 77 78 75 71 71 71 71 70 68 68 68 67 66 65 63
50 43 34 31 34 41 47 54 54 50 50 51 49 52 54 60 68 69 72 72 70 70 70 69 70 70 70 70 75 77 77 76 74 71 71 71 70 69 67 66 65 64 63 62
50 48 39 36 30 29 46 50 57 57 42 51 47 47 50 55 52 56 68 70 69 69 68 67 68 68 68 70 72 72 75 74 74 73 72 72 71 69 66 65 62 52 47 42
40 38 33 34 32 40 52 49 49 39 39 50 52 47 48 46 51 53 57 69 69 68 66 65 64 61 61 64 67 67 66 67 72 71 67 61 60 58 52 47 45 42 39 36
36 35 33 36 33 30 53 54 41 46 53 53 53 50 49 53 57 58 57 63 63 60 59 57 55 52 53 57 59 54 50 52 52 50 47 47 47 46 44 40 39 38 36 34
37 44 39 41 42 49 45 49 54 55 51 51 51 53 54 55 58 58 54 55 53 52 50 49 47 45 45 47 49 47 45 46 45 43 41 41 41 40 40 39 37 35 34 31
48 54 43 41 48 49 47 52 54 55 52 52 53 54 56 54 55 54 53 50 47 44 42 43 41 39 38 41 42 41 42 42 40 38 36 36 35 35 36 36 35 34 32 30
45 45 46 44 47 48 48 50 50 51 53 52 53 52 53 53 51 47 43 42 40 40 39 38 37 36 36 38 38 39 38 38 35 34 33 32 32 31 31 31 31 30 31 31
42 40 39 36 44 46 44 47 49 48 49 51 50 49 51 48 44 42 37 36 36 34 35 35 35 34 34 35 35 36 36 36 34 32 31 30 30 30 30 29 28 31 30 31
MSLP
1004.33 1004.53 1003.21 1003.00 1002.91 1002.68 1002.16 1001.40 1000.51 999.82 998.76 997.72 996.61 995.69 995.78 995.68 995.36 995.12 995.47 995.83 996.21 996.71 997.51 998.88 1000.47 1002.03 1003.25 1004.68 1006.35 1007.39 1008.20 1008.69 1009.11 1009.56 1010.02 1010.51 1010.87 1011.32 1011.66 1011.87 1012.03 1012.56 1012.42 1013.40
1003.82 1002.64 1002.74 1002.57 1002.22 1001.98 1001.62 1001.32 1000.91 1000.72 999.76 998.31 997.14 996.23 995.85 995.61 995.10 994.83 994.69 994.80 995.20 995.79 996.72 998.34 1000.22 1002.02 1003.22 1004.57 1006.22 1007.29 1008.04 1008.53 1009.01 1009.48 1009.99 1010.39 1011.04 1011.74 1012.00 1012.46 1012.78 1012.78 1013.23 1014.17
1002.37 1001.15 1001.48 1001.50 1001.45 1001.40 1000.89 1001.26 1001.47 1001.74 1000.93 999.08 997.98 996.33 995.64 995.25 994.71 994.35 994.00 993.86 994.26 994.74 995.89 997.66 999.77 1001.69 1003.25 1004.46 1005.88 1006.96 1007.68 1008.18 1008.86 1009.49 1010.15 1010.65 1011.28 1012.13 1012.49 1013.18 1013.51 1014.14 1014.42 1015.19
1001.58 1001.08 1000.47 1000.17 1000.32 1000.83 1000.19 1001.22 1002.17 1002.89 1002.88 1000.66 998.86 996.20 995.29 994.23 993.20 992.60 992.50 992.99 993.64 994.09 995.08 996.84 998.99 1001.14 1002.92 1004.07 1005.48 1006.62 1007.42 1007.87 1008.68 1009.42 1010.06 1010.40 1010.59 1011.34 1012.33 1012.85 1013.37 1013.79 1014.44 1015.01
1000.80 1000.87 1000.43 1000.00 999.94 1000.09 1000.33 1001.09 1002.63 1003.64 1003.13 1001.66 999.25 997.11 995.34 994.11 992.87 992.07 991.56 991.95 992.77 993.69 994.69 996.13 998.07 1000.27 1002.37 1003.71 1004.96 1006.15 1007.12 1007.58 1008.31 1009.17 1009.80 1010.43 1011.10 1011.59 1012.26 1012.90 1013.25 1013.61 1014.18 1014.74
1001.22 1000.88 1000.27 999.59 999.93 1000.05 1000.68 1001.08 1002.16 1002.93 1002.85 1001.46 999.51 997.12 994.96 993.47 991.97 990.96 990.63 991.13 991.92 992.90 993.98 995.35 997.08 999.40 1001.45 1003.00 1004.31 1005.67 1006.68 1007.28 1007.98 1008.83 1009.54 1010.10 1010.69 1011.34 1012.21 1012.77 1013.20 1013.57 1014.04 1014.56
1001.50 1000.69 1000.37 999.85 1000.25 1000.28 1000.62 1001.39 1001.91 1002.65 1002.48 1000.11 998.52 996.30 994.19 992.37 991.27 990.52 989.71 990.72 991.21 992.06 993.26 994.64 996.56 998.50 1000.38 1002.07 1003.53 1005.07 1006.03 1006.88 1007.56 1008.34 1009.06 1009.66 1010.25 1010.81 1011.45 1012.07 1012.47 1013.05 1013.55 1014.02
1000.27 999.99 999.79 999.22 999.42 999.80 999.89 1000.93 1000.93 1001.35 1001.26 1000.34 998.71 995.20 992.68 991.20 990.57 990.47 990.48 990.89 991.30 991.93 992.92 994.07 995.66 997.49 999.48 1001.22 1002.76 1004.33 1005.18 1006.18 1007.00 1007.74 1008.48 1009.18 1009.87 1010.46 1011.03 1011.47 1011.81 1012.31 1012.67 1013.20
999.39 998.31 997.82 998.12 998.92 999.40 999.41 999.99 1000.68 1000.65 1000.24 1000.36 998.47 995.88 992.99 991.16 990.52 990.45 990.53 990.80 991.29 991.94 992.77 993.64 994.94 996.57 998.47 1000.35 1001.85 1003.47 1004.54 1005.49 1006.47 1007.19 1007.90 1008.52 1009.21 1009.97 1010.42 1011.05 1011.47 1012.06 1012.60 1013.21
1000.23 999.52 998.38 997.82 998.43 998.85 998.95 999.88 1000.39 1000.62 1000.32 999.38 997.59 995.55 993.43 991.71 990.50 990.55 990.77 990.99 991.37 991.63 992.10 992.88 994.10 995.85 997.49 999.48 1001.16 1002.79 1004.08 1004.67 1005.65 1006.51 1007.20 1007.80 1008.42 1009.17 1009.77 1010.33 1010.91 1011.54 1012.11 1012.70
1001.02 1000.26 999.36 998.25 998.49 998.28 998.99 999.39 999.96 1000.12 999.30 998.48 997.25 995.46 993.76 992.34 991.62 990.80 990.85 991.31 991.70 991.84 991.83 992.27 993.47 995.20 996.80 998.65 1000.35 1001.88 1003.18 1003.98 1004.69 1005.73 1006.41 1007.03 1007.67 1008.39 1009.09 1009.47 1010.11 1010.72 1011.32 1011.81
1002.54 1001.67 1000.54 999.11 997.95 997.96 998.03 998.72 999.37 999.58 998.80 998.02 997.32 995.34 993.33 993.91 993.52 991.48 991.35 991.74 992.11 992.17 991.98 991.89 992.88 994.57 996.06 997.78 999.44 1000.84 1001.92 1002.90 1003.64 1004.47 1005.60 1006.38 1007.11 1007.66 1008.23 1008.69 1009.20 1009.91 1010.48 1010.92
1003.73 1002.40 1001.56 999.96 999.09 998.66 998.19 998.03 998.30 998.70 998.69 997.88 997.15 995.36 993.83 993.44 992.92 991.74 992.02 992.03 992.28 992.17 992.29 992.00 992.72 993.89 995.38 997.02 998.40 999.73 1000.78 1001.54 1002.74 1003.70 1004.34 1005.21 1005.80 1006.42 1006.98 1007.57 1008.33 1008.99 1009.54 1010.00
1004.64 1003.95 1003.03 1001.85 1001.48 1001.21 1000.28 998.96 998.13 997.89 997.83 997.68 996.72 995.80 994.52 993.74 993.45 993.81 993.10 992.24 992.01 992.23 992.59 992.63 992.89 993.60 994.77 996.07 997.49 998.69 999.85 1000.89 1001.55 1002.64 1003.64 1004.21 1004.86 1005.39 1005.93 1006.51 1007.19 1007.82 1008.52 1008.96
1004.82 1004.43 1003.81 1002.62 1001.94 1001.46 1000.52 999.59 998.75 997.94 997.55 997.41 997.04 996.06 994.90 994.22 993.74 993.38 993.45 993.22 992.42 992.49 992.58 992.68 993.19 993.65 994.30 995.33 996.57 997.74 998.96 999.95 1000.80 1001.39 1002.12 1002.81 1003.77 1004.54 1005.28 1005.86 1006.38 1006.90 1007.43 1008.02
1004.91 1004.73 1004.17 1003.22 1002.28 1001.44 1000.27 999.52 998.89 998.35 997.97 997.69 997.24 996.32 995.70 994.72 994.03 993.21 992.67 992.60 992.33 992.49 992.58 992.72 993.05 993.56 994.03 994.64 995.63 996.74 997.87 999.05 999.98 1000.51 1000.87 1001.73 1002.61 1003.54 1004.25 1004.80 1005.38 1006.00 1006.49 1007.06
1005.64 1005.40 1005.01 1003.95 1003.14 1001.87 1000.29 999.18 998.50 998.39 998.27 998.16 997.76 997.52 997.00 995.73 994.70 993.74 992.81 992.76 992.70 992.84 993.02 993.50 993.92 994.07 994.08 994.37 994.93 995.70 996.67 997.83 998.78 999.63 1000.33 1000.90 1001.56 1002.11 1002.78 1003.78 1004.42 1004.90 1005.47 1006.15
1005.84 1005.91 1005.88 1004.91 1003.76 1001.94 1000.05 998.77 998.43 998.26 998.75 999.00 998.71 998.41 997.66 996.92 994.84 993.74 993.13 993.29 993.02 993.40 993.90 994.36 994.90 995.24 995.17 994.86 994.64 994.97 995.73 996.72 997.70 998.47 999.22 1000.07 1000.81 1001.52 1002.24 1002.81 1003.50 1004.23 1004.88 1005.47
1005.31 1005.89 1006.13 1005.36 1003.99 1002.14 1000.52 999.52 998.88 999.15 999.98 1000.95 1000.93 1000.66 999.98 997.71 994.73 994.12 993.84 994.32 994.61 994.97 995.29 995.72 996.13 996.40 996.49 995.79 995.15 994.91 995.28 996.01 996.93 997.68 998.40 999.15 1000.05 1000.97 1001.91 1002.51 1003.15 1004.04 1004.85 1005.64
1004.43 1005.41 1005.88 1005.32 1004.42 1002.44 1000.61 1000.81 1000.18 1000.09 1000.79 1001.90 1002.37 1002.09 1000.90 998.88 996.06 996.89 996.00 995.43 995.83 996.50 996.89 997.23 997.27 997.23 997.03 996.62 995.99 995.50 995.55 995.77 996.04 996.91 997.84 998.66 999.55 1000.46 1001.38 1002.30 1003.23 1004.41 1005.20 1006.60
1003.60 1004.84 1005.25 1005.25 1004.61 1002.84 1001.52 1001.61 1001.85 1001.49 1002.89 1002.69 1002.72 1002.77 1002.04 1001.12 1000.65 999.91 998.24 996.75 996.81 997.35 998.26 998.76 998.93 998.95 999.03 998.33 997.48 996.91 996.92 996.46 995.40 996.73 998.09 999.08 999.68 1000.67 1002.09 1003.38 1004.62 1005.65 1006.86 1008.15
1003.55 1004.18 1004.54 1004.82 1004.20 1003.52 1002.50 1001.73 1002.50 1003.31 1002.96 1002.98 1002.90 1002.63 1001.68 1001.10 1000.04 999.85 999.91 998.95 998.64 999.24 999.75 1000.40 1000.66 1001.04 1000.97 1000.24 999.26 999.27 999.56 999.69 999.44 997.62 1000.17 1001.00 1001.74 1002.29 1002.80 1004.12 1006.01 1007.12 1008.30 1009.45
1003.19 1003.02 1003.40 1004.09 1003.62 1003.52 1004.15 1004.04 1003.63 1003.75 1003.74 1003.81 1003.36 1002.79 1002.21 1001.39 1000.19 999.88 1000.63 1001.42 1001.95 1002.31 1002.24 1002.44 1002.86 1003.08 1003.02 1002.70 1001.98 1001.64 1002.00 1001.64 1001.81 1000.80 1001.18 1002.60 1003.52 1004.06 1005.49 1004.98 1006.55 1007.56 1009.02 1010.10
1003.07 1002.42 1003.24 1004.00 1003.84 1004.14 1004.80 1004.68 1004.83 1004.59 1004.46 1004.36 1004.00 1003.50 1002.87 1002.03 1002.07 1002.13 1002.41 1003.39 1004.02 1004.01 1004.13 1004.40 1004.65 1005.02 1005.02 1004.79 1004.55 1004.28 1004.12 1003.82 1003.43 1003.73 1004.52 1004.35 1004.05 1006.16 1007.03 1006.57 1007.91 1008.87 1009.13 1010.86
1004.22 1004.27 1003.72 1004.10 1004.41 1004.97 1005.51 1005.65 1005.80 1005.45 1005.14 1005.03 1004.80 1004.51 1004.20 1003.90 1004.06 1004.58 1005.39 1005.83 1005.99 1005.89 1006.29 1006.34 1006.34 1006.61 1006.55 1006.31 1006.12 1005.94 1005.76 1006.07 1005.38 1005.93 1006.25 1006.20 1006.71 1007.80 1008.55 1008.96 1009.58 1010.45 1011.08 1011.57
1006.04 1005.52 1005.24 1005.48 1006.05 1005.87 1006.51 1006.93 1006.82 1006.43 1006.38 1006.20 1006.27 1006.38 1006.04 1006.39 1006.99 1007.54 1007.94 1007.97 1008.14 1008.42 1008.49 1007.92 1008.07 1008.18 1007.90 1007.33 1006.70 1006.50 1006.84 1007.36 1007.48 1007.43 1008.26 1008.79 1008.91 1009.35 1010.19 1010.95 1011.68 1013.04 1013.52 1014.17
Wind_Speed
18 16 19 21 22 25 22 24 25 22 25 23 18 14 12 14 15 13 15 15 11 10 14 15 12 11 10 15 13 11 10 8 8 8 7 7 6 7 7 6 12 12 11 12
16 22 21 23 23 23 25 22 27 22 29 22 21 17 16 18 19 16 15 13 15 14 13 16 16 12 10 15 13 12 10 10 9 7 6 6 9 7 9 8 9 10 9 8
20 18 24 22 23 26 23 24 18 23 27 26 22 24 15 19 19 18 19 15 14 14 16 18 18 14 10 15 14 13 11 12 10 10 8 8 8 7 8 9 11 11 11 7
20 20 21 16 19 25 23 18 20 20 21 18 22 15 18 17 17 21 24 18 13 12 13 19 19 17 13 12 16 14 13 13 13 14 12 16 12 13 8 9 10 11 13 13
22 21 21 20 21 15 20 13 14 19 20 23 25 16 13 16 18 17 13 13 12 8 9 19 19 18 16 12 14 14 14 13 15 15 14 12 11 8 8 6 7 10 10 13
21 20 19 19 16 20 15 7 14 17 14 18 22 21 13 16 19 17 11 12 16 16 12 18 19 19 17 15 15 14 14 13 15 15 16 16 15 13 10 10 9 8 10 9
23 24 23 10 12 16 14 12 9 5 7 12 19 17 14 17 20 12 12 7 5 14 13 14 21 18 17 18 17 14 17 15 16 16 16 17 17 16 15 15 12 14 11 7
12 15 22 15 20 16 17 18 9 13 7 5 16 12 14 15 11 5 3 4 4 11 12 15 20 19 18 18 19 18 18 17 17 16 17 17 17 11 12 15 11 10 10 10
9 11 14 20 25 21 17 20 16 17 18 4 10 18 10 13 8 6 7 12 7 7 8 11 18 19 18 18 19 19 18 17 17 17 15 17 16 17 15 17 13 11 10 9
8 10 9 9 6 22 18 14 15 11 16 16 12 11 9 16 12 9 7 5 5 7 13 14 15 19 18 18 16 18 18 17 18 18 16 15 16 17 16 14 17 14 13 12
11 9 13 4 10 12 12 17 13 11 13 10 8 1 5 11 15 9 6 9 6 8 8 14 14 19 18 17 18 18 18 18 18 17 17 15 16 18 18 15 15 17 15 15
10 4 7 15 9 13 17 18 17 9 12 8 11 8 12 3 12 7 6 8 5 3 9 7 14 20 19 18 18 18 18 19 18 18 17 17 16 17 18 18 18 18 18 16
11 3 5 11 9 8 7 9 16 17 14 15 10 10 9 10 12 4 5 2 7 5 4 4 13 16 17 17 17 18 18 18 17 18 18 17 18 18 18 18 18 19 19 19
4 7 10 9 5 8 11 18 14 14 10 11 14 16 16 9 18 18 18 5 4 5 6 2 2 11 16 16 17 17 17 15 17 19 18 18 18 17 16 16 17 18 19 19
5 11 13 18 17 13 17 16 16 14 10 11 12 17 16 13 9 15 12 21 7 5 6 7 5 7 11 15 17 15 15 16 15 17 20 20 18 18 17 16 15 15 15 17
2 5 10 14 16 16 17 17 18 17 16 17 18 18 16 18 19 17 10 11 13 12 5 4 5 5 10 11 15 16 16 17 16 16 16 16 18 18 18 18 18 17 15 15
4 4 5 11 13 14 14 14 17 19 17 15 13 14 18 20 20 18 13 8 7 7 2 7 9 6 3 7 9 13 15 16 17 16 14 15 15 17 17 17 17 18 18 15
8 8 5 6 9 8 9 15 6 6 7 11 16 14 17 28 23 22 4 15 8 8 9 9 9 11 12 10 6 10 13 15 17 17 16 14 14 16 16 16 16 15 14 16
15 11 4 4 6 14 18 14 11 8 2 16 14 16 21 25 22 12 7 7 12 9 9 9 7 6 7 10 11 6 11 13 15 17 16 15 14 14 13 13 14 10 10 10
18 13 9 5 6 5 2 11 13 2 6 12 14 16 21 24 8 10 10 9 8 10 10 9 9 9 10 10 10 8 8 10 13 13 14 13 12 13 13 12 11 6 12 11
14 11 13 9 8 8 6 8 21 5 5 11 10 11 16 12 9 12 18 6 12 10 11 12 11 11 12 12 12 9 11 2 6 6 6 7 8 10 14 13 11 11 13 13
9 10 7 9 8 11 18 4 3 4 7 12 11 11 13 16 15 14 9 13 14 15 15 16 13 12 14 15 12 13 13 12 11 19 14 13 12 10 12 17 12 13 13 14
7 9 6 4 4 7 13 9 11 9 9 12 14 14 10 15 17 12 8 9 13 14 14 14 13 13 14 15 14 11 9 9 11 15 14 14 13 13 9 14 13 13 12 11
7 12 4 4 6 5 8 10 13 13 13 14 15 15 16 17 18 15 15 14 13 14 14 12 13 14 14 14 14 13 11 9 11 13 13 12 17 13 11 10 10 7 11 9
3 4 4 0 10 9 11 11 13 14 14 15 16 17 16 17 18 16 14 14 13 13 12 12 12 11 11 11 13 14 13 10 14 13 12 13 13 14 13 13 11 10 10 9
8 8 5 4 10 7 9 12 15 14 15 13 12 14 14 16 15 13 11 12 12 12 11 12 12 10 10 8 10 13 13 13 11 15 12 11 11 12 13 15 18 30 26 28
Wind_Direction
214 225 230 224 228 244 262 271 274 279 276 256 261 284 242 261 277 260 210 217 227 232 183 165 158 142 155 121 136 136 160 148 139 135 129 120 118 110 101 95 123 135 103 97
227 227 238 238 245 244 243 249 262 275 281 286 284 272 263 267 268 265 255 238 210 215 182 155 145 154 171 139 146 148 163 160 148 140 139 126 126 118 115 113 98 99 86 93
232 243 223 232 241 243 242 249 251 255 286 285 283 270 269 265 262 259 259 249 245 205 177 156 153 164 176 145 153 156 172 165 144 137 126 121 113 112 126 139 136 147 148 146
243 256 249 242 233 240 250 238 258 276 272 277 273 271 254 255 245 243 224 221 229 222 178 160 157 163 172 160 150 160 170 160 151 150 150 153 152 147 147 147 163 167 165 164
250 248 261 250 254 247 253 224 220 252 266 268 265 260 259 271 269 262 259 195 202 196 222 161 164 160 167 175 157 161 170 165 153 162 163 158 153 141 149 160 164 159 164 169
260 265 276 247 251 247 269 256 212 248 234 254 259 258 253 255 255 249 226 206 189 194 196 163 158 155 166 171 161 158 170 170 157 165 168 171 166 154 158 170 175 171 168 183
243 249 263 228 259 276 209 230 223 240 232 255 247 248 232 245 250 276 192 182 187 175 170 162 154 160 169 162 161 169 171 175 170 170 169 177 178 169 171 176 179 179 179 181
243 232 228 239 220 232 210 212 207 227 228 331 300 260 242 237 247 265 151 143 198 169 162 168 161 164 169 165 165 180 177 176 173 172 178 180 182 179 181 183 181 186 191 187
272 237 257 207 221 222 202 213 232 273 291 232 265 302 344 281 192 196 246 209 153 155 166 175 163 165 167 168 170 175 180 174 177 180 183 182 182 186 192 189 188 185 187 191
282 302 264 188 206 222 242 211 218 215 253 271 257 262 231 251 214 202 182 183 205 217 196 177 170 163 165 167 167 168 186 181 179 181 186 188 182 185 193 187 197 189 196 202
311 245 273 216 195 230 202 241 244 266 246 252 267 313 270 6 342 182 146 66 25 330 282 166 169 161 164 162 166 170 180 187 180 185 188 188 189 185 194 192 191 198 199 199
32 321 274 261 233 212 211 211 226 229 246 243 251 261 300 68 270 284 89 115 105 296 293 187 164 159 164 165 168 176 182 189 187 182 187 192 195 194 197 201 196 197 201 202
360 299 290 263 250 267 280 243 207 220 251 264 275 272 312 328 318 105 28 54 129 89 352 289 161 162 165 166 176 181 185 189 187 184 186 191 194 198 197 197 199 199 206 202
352 275 284 282 320 302 299 307 252 250 231 235 250 272 278 311 307 357 320 306 9 70 129 268 200 174 170 171 181 184 184 193 186 179 190 191 200 202 202 199 200 200 202 205
231 262 276 282 286 279 278 277 288 278 262 260 276 275 283 294 265 226 211 269 328 279 303 154 204 202 180 177 180 186 182 188 189 202 187 195 195 198 199 206 207 205 201 204
26 273 280 276 280 279 278 275 271 265 268 271 269 268 284 295 298 299 291 291 243 242 254 243 148 225 199 190 183 184 184 186 195 202 203 191 188 195 200 202 202 204 205 205
299 289 295 269 275 287 282 271 251 253 261 268 284 310 316 304 287 281 271 256 294 295 332 43 8 335 247 197 184 185 186 179 191 201 203 199 196 197 196 200 200 201 202 197
236 253 268 289 312 258 245 260 347 283 286 302 281 302 289 313 275 263 357 310 269 56 38 25 19 1 351 337 205 186 184 186 190 196 199 199 200 200 202 199 204 204 200 199
218 230 249 243 251 282 290 290 261 244 199 19 350 341 317 314 262 259 19 64 37 38 45 36 6 356 323 315 315 220 193 193 188 199 198 198 199 199 200 207 201 196 200 196
201 211 223 234 246 257 44 359 341 105 211 9 12 338 339 340 354 52 29 60 63 46 34 1 12 357 356 344 318 320 216 202 192 193 196 196 194 193 195 198 192 64 80 86
191 186 216 230 247 280 356 23 300 230 359 335 352 347 313 342 352 317 333 348 62 66 37 18 19 17 0 345 326 317 334 28 164 109 93 69 67 84 87 85 82 92 94 90
188 187 194 230 249 253 8 75 27 355 5 360 357 353 325 313 319 351 325 336 43 34 32 24 27 20 7 354 11 33 31 19 2 93 70 64 71 84 105 102 92 87 92 91
177 213 173 212 250 64 39 350 57 40 20 2 355 341 350 327 325 289 338 61 43 33 35 32 30 25 20 11 11 31 21 47 45 49 81 92 79 77 70 95 105 103 103 108
281 188 142 130 240 125 89 24 29 28 26 12 2 352 1 352 15 33 41 37 31 32 30 31 38 34 25 23 27 34 28 39 64 76 66 63 81 74 66 84 88 92 111 112
351 302 215 7 66 98 39 48 24 21 17 22 6 4 8 2 27 29 25 26 26 32 35 38 42 42 44 46 45 36 40 41 66 64 67 70 73 73 72 62 64 65 60 91
349 3 13 67 32 25 70 46 22 19 8 16 15 8 20 24 26 30 33 32 30 32 32 44 42 33 16 38 62 73 63 48 70 72 56 55 74 83 82 83 79 70 75 76